Hourly Data Report for July 07, 2021

ALGONQUIN PARK EAST GATE
ONTARIO
Current Station Operator: ECCC - MSC

45°32'00.000" N
78°16'00.000" W
397.00 m
6080192
71581
TNK

Download Data

Hourly Data (July 2021)
Hourly Data Report for July 7, 2021
TIME
LST
Temp Definition
°C
Dew Point Definition
°C
Rel Hum Definition
%
Precip. Amount Definition
mm

Wind Dir Definition
10's deg

Wind Spd Definition
km/h
Visibility Definition
km
Stn Press Definition
kPa
Hmdx Definition


Wind Chill Definition


Weather Definition


00:00 15.4 10.3 71 0.0 7 3   96.95     LegendNANA
01:00 14.9 9.9 72 0.0 4 3   96.94     LegendNANA
02:00 14.4 9.8 74 0.0 4 3   96.92     LegendNANA
03:00 13.1 10.6 85 0.1 0 1   96.94     LegendNANA
04:00 12.3 10.0 86 0.2 5 1   96.96     LegendNANA
05:00 11.5 9.8 90 0.1 6 3   96.97     LegendNANA
06:00 10.0 8.6 91 1.3 2 5   97.05     LegendNANA
07:00 8.6 7.2 91 1.1 4 2   97.09     LegendNANA
08:00 9.3 7.6 89 0.2 6 3   97.10     LegendNANA
09:00 9.5 7.1 85 0.0 3 3   97.13     LegendNANA
10:00 10.6 7.3 80 0.2 4 3   97.14     LegendNANA
11:00 11.3 5.4 67 0.0 6 6   97.12     LegendNANA
12:00 12.3 5.3 62 0.0 10 5   97.11     LegendNANA
13:00 12.9 6.8 66 0.0 9 3   97.08     LegendNANA
14:00 13.8 7.7 67 0.1 14 3   97.07     LegendNANA
15:00 14.3 8.2 66 0.0 14 4   97.05     LegendNANA
16:00 15.3 9.5 68 0.0 13 2   97.03     LegendNANA
17:00 15.3 9.2 67 0.0 12 6   96.94     LegendNANA
18:00 14.9 9.9 72 0.0 13 4   96.93     LegendNANA
19:00 13.9 10.9 82 0.0   0   96.99     LegendNANA
20:00 13.1 11.5 90 0.0   0   97.03     LegendNANA
21:00 12.5 11.3 93 0.0   0   97.03     LegendNANA
22:00 12.4 11.3 93 0.0   0   97.00     LegendNANA
23:00 12.2 11.3 94 0.0 0 1   97.00     LegendNANA

Notes on Data Quality.

Legend

  • E = Estimated
  • M = Missing
  • NA = Not Available*
  • [empty] = Indicates an unobserved value
Date modified: